| time (UTC) | temp F | wind direction | speed MPH | gust MPH | rain 1hr in | rain 24hr in | rain mn in | humidity % | barometer mb |
| 20260508192203 | 54 | 257 | 2.0 | 9.0 | 0.00 | 0.00 | 0.00 | 61 | 1006.1 |
| 20260508191202 | 54 | 225 | 4.0 | 10.0 | 0.00 | 0.00 | 0.00 | 61 | 1006.0 |
| 20260508190203 | 54 | 200 | 4.0 | 10.0 | 0.00 | 0.00 | 0.00 | 60 | 1006.0 |
| 20260508185203 | 55 | 193 | 6.0 | 11.0 | 0.00 | 0.00 | 0.00 | 60 | 1006.0 |
| 20260508184202 | 54 | 196 | 3.0 | 13.0 | 0.00 | 0.00 | 0.00 | 66 | 1006.0 |
| 20260508183203 | 53 | 202 | 6.0 | 12.0 | 0.00 | 0.00 | 0.00 | 65 | 1006.2 |
| 20260508182245 | 52 | 217 | 6.0 | 10.0 | 0.00 | 0.00 | 0.00 | 68 | 1006.3 |
| 20260508181202 | 52 | 204 | 5.0 | 10.0 | 0.00 | 0.00 | 0.00 | 68 | 1006.2 |
| 20260508180224 | 52 | 260 | 5.0 | 12.0 | 0.00 | 0.00 | 0.00 | 65 | 1006.1 |
| 20260508175224 | 53 | 224 | 4.0 | 10.0 | 0.00 | 0.00 | 0.00 | 59 | 1006.0 |
| 20260508174203 | 53 | 206 | 7.0 | 12.0 | 0.00 | 0.00 | 0.00 | 60 | 1005.9 |
| 20260508173203 | 53 | 227 | 3.0 | 13.0 | 0.00 | 0.00 | 0.00 | 60 | 1006.0 |
| 20260508172202 | 54 | 196 | 3.0 | 10.0 | 0.00 | 0.00 | 0.00 | 58 | 1005.8 |
| 20260508171204 | 55 | 201 | 6.0 | 10.0 | 0.00 | 0.00 | 0.00 | 56 | 1005.7 |
| 20260508170244 | 56 | 203 | 6.0 | 9.0 | 0.00 | 0.00 | 0.00 | 57 | 1005.8 |
| 20260508165224 | 55 | 225 | 3.0 | 9.0 | 0.00 | 0.00 | 0.00 | 57 | 1005.8 |
| 20260508164203 | 54 | 197 | 3.0 | 9.0 | 0.00 | 0.00 | 0.00 | 61 | 1005.8 |
| 20260508163224 | 56 | 221 | 4.0 | 11.0 | 0.00 | 0.00 | 0.00 | 41 | 1005.7 |
| 20260508162203 | 57 | 324 | 5.0 | 12.0 | 0.00 | 0.00 | 0.00 | 40 | 1005.7 |
| 20260508161202 | 57 | 299 | 5.0 | 11.0 | 0.00 | 0.00 | 0.00 | 38 | 1005.6 |
| 20260508160203 | 57 | 229 | 4.0 | 11.0 | 0.00 | 0.00 | 0.00 | 48 | 1005.6 |
| 20260508155202 | 57 | 240 | 5.0 | 12.0 | 0.00 | 0.00 | 0.00 | 45 | 1005.8 |
| 20260508154224 | 56 | 340 | 3.0 | 10.0 | 0.00 | 0.00 | 0.00 | 43 | 1005.8 |
| 20260508153203 | 57 | 235 | 4.0 | 14.0 | 0.00 | 0.00 | 0.00 | 43 | 1005.9 |
| 20260508152224 | 56 | 352 | 5.0 | 12.0 | 0.00 | 0.00 | 0.00 | 42 | 1005.8 |
| 20260508151203 | 55 | 338 | 4.0 | 9.0 | 0.00 | 0.00 | 0.00 | 45 | 1006.0 |
| 20260508150202 | 59 | 268 | 7.0 | 12.0 | 0.00 | 0.00 | 0.00 | 47 | 1006.1 |
| 20260508145203 | 57 | 216 | 3.0 | 13.0 | 0.00 | 0.00 | 0.00 | 46 | 1006.0 |
| 20260508144203 | 59 | 284 | 5.0 | 13.0 | 0.00 | 0.00 | 0.00 | 52 | 1006.1 |
| 20260508143202 | 57 | 295 | 7.0 | 14.0 | 0.00 | 0.00 | 0.00 | 47 | 1006.2 |
| 20260508142203 | 57 | 281 | 8.0 | 14.0 | 0.00 | 0.00 | 0.00 | 43 | 1006.3 |
| 20260508141202 | 57 | 292 | 8.0 | 17.0 | 0.00 | 0.00 | 0.00 | 44 | 1006.3 |
| 20260508140203 | 57 | 278 | 7.0 | 18.0 | 0.00 | 0.00 | 0.00 | 46 | 1006.3 |
| 20260508135203 | 57 | 296 | 4.0 | 13.0 | 0.00 | 0.00 | 0.00 | 47 | 1006.5 |
| 20260508134202 | 57 | 279 | 4.0 | 15.0 | 0.00 | 0.00 | 0.00 | 48 | 1006.4 |
| 20260508133203 | 57 | 240 | 5.0 | 15.0 | 0.00 | 0.00 | 0.00 | 48 | 1006.4 |
| 20260508132204 | 56 | 254 | 6.0 | 12.0 | 0.00 | 0.00 | 0.00 | 48 | 1006.5 |
| 20260508131203 | 56 | 262 | 3.0 | 9.0 | 0.00 | 0.00 | 0.00 | 52 | 1006.5 |
| 20260508130225 | 55 | 286 | 4.0 | 11.0 | 0.00 | 0.00 | 0.00 | 52 | 1006.4 |
| 20260508125203 | 54 | 296 | 2.0 | 10.0 | 0.00 | 0.00 | 0.00 | 55 | 1006.5 |
| 20260508124203 | 53 | 325 | 2.0 | 13.0 | 0.00 | 0.00 | 0.00 | 53 | 1006.6 |
| 20260508123202 | 53 | 313 | 6.0 | 13.0 | 0.00 | 0.00 | 0.00 | 55 | 1006.6 |
| 20260508122203 | 52 | 324 | 5.0 | 12.0 | 0.00 | 0.00 | 0.00 | 54 | 1006.6 |
| 20260508121202 | 50 | 318 | 3.0 | 11.0 | 0.00 | 0.00 | 0.00 | 57 | 1006.6 |
| 20260508120203 | 49 | 309 | 5.0 | 10.0 | 0.00 | 0.00 | 0.00 | 60 | 1006.7 |
| 20260508115202 | 48 | 307 | 3.0 | 10.0 | 0.00 | 0.00 | 0.00 | 61 | 1006.8 |
| 20260508114203 | 48 | 299 | 4.0 | 9.0 | 0.00 | 0.00 | 0.00 | 64 | 1006.8 |
| 20260508113203 | 47 | 300 | 3.0 | 8.0 | 0.00 | 0.00 | 0.00 | 62 | 1006.7 |
| 20260508112202 | 47 | 334 | 4.0 | 9.0 | 0.00 | 0.00 | 0.00 | 62 | 1006.7 |
| 20260508111225 | 46 | 290 | 3.0 | 9.0 | 0.00 | 0.00 | 0.00 | 64 | 1006.7 |
| 20260508110202 | 45 | 277 | 3.0 | 9.0 | 0.00 | 0.00 | 0.00 | 66 | 1006.7 |
| 20260508105203 | 44 | 254 | 2.0 | 7.0 | 0.00 | 0.00 | 0.00 | 69 | 1006.6 |
| 20260508104203 | 42 | 255 | 1.0 | 4.0 | 0.00 | 0.00 | 0.00 | 75 | 1006.5 |
| 20260508103203 | 41 | 268 | 2.0 | 6.0 | 0.00 | 0.00 | 0.00 | 77 | 1006.5 |
| 20260508102203 | 40 | 296 | 0.0 | 3.0 | 0.00 | 0.00 | 0.00 | 84 | 1006.4 |
| 20260508101202 | 38 | 296 | 0.0 | 3.0 | 0.00 | 0.00 | 0.00 | 87 | 1006.3 |
| 20260508100203 | 37 | 296 | 0.0 | 2.0 | 0.00 | 0.00 | 0.00 | 87 | 1006.1 |
| 20260508095203 | 36 | 297 | 0.0 | 3.0 | 0.00 | 0.00 | 0.00 | 85 | 1006.0 |
| 20260508094203 | 36 | 296 | 0.0 | 1.0 | 0.00 | 0.00 | 0.00 | 83 | 1005.8 |
| 20260508093224 | 36 | 297 | 0.0 | 0.0 | 0.00 | 0.00 | 0.00 | 82 | 1005.6 |
| 20260508092202 | 37 | 297 | 0.0 | 2.0 | 0.00 | 0.01 | 0.00 | 82 | 1005.4 |
| 20260508091224 | 38 | 296 | 1.0 | 2.0 | 0.00 | 0.01 | 0.00 | 79 | 1005.3 |
| 20260508090203 | 38 | 296 | 0.0 | 2.0 | 0.00 | 0.01 | 0.00 | 78 | 1005.1 |
| 20260508085202 | 38 | 296 | 1.0 | 2.0 | 0.00 | 0.01 | 0.00 | 80 | 1005.1 |
| 20260508084224 | 37 | 296 | 0.0 | 3.0 | 0.00 | 0.01 | 0.00 | 83 | 1005.0 |
| 20260508083203 | 37 | 296 | 0.0 | 2.0 | 0.00 | 0.01 | 0.00 | 82 | 1004.9 |
| 20260508082223 | 38 | 296 | 1.0 | 3.0 | 0.00 | 0.01 | 0.00 | 77 | 1005.0 |
| 20260508081203 | 39 | 296 | 2.0 | 3.0 | 0.00 | 0.01 | 0.00 | 76 | 1005.0 |
| 20260508080202 | 39 | 296 | 1.0 | 2.0 | 0.00 | 0.01 | 0.00 | 74 | 1004.9 |
| 20260508075203 | 39 | 296 | 1.0 | 2.0 | 0.00 | 0.01 | 0.00 | 73 | 1004.7 |
| 20260508074203 | 40 | 296 | 0.0 | 2.0 | 0.00 | 0.01 | 0.00 | 72 | 1004.7 |
| 20260508073203 | 42 | 296 | 2.0 | 4.0 | 0.00 | 0.01 | 0.00 | 67 | 1004.7 |
| 20260508072203 | 42 | 296 | 1.0 | 8.0 | 0.00 | 0.01 | 0.00 | 67 | 1004.7 |
| 20260508071202 | 43 | 311 | 2.0 | 8.0 | 0.00 | 0.01 | 0.00 | 64 | 1004.7 |
| 20260508070203 | 43 | 332 | 2.0 | 9.0 | 0.00 | 0.01 | 0.00 | 63 | 1004.7 |
| 20260508065203 | 44 | 331 | 3.0 | 8.0 | 0.00 | 0.01 | 0.00 | 62 | 1004.6 |
| 20260508064223 | 44 | 356 | 2.0 | 6.0 | 0.00 | 0.01 | 0.00 | 61 | 1004.7 |
| 20260508063203 | 45 | 313 | 3.0 | 10.0 | 0.00 | 0.01 | 0.00 | 60 | 1004.6 |
| 20260508062203 | 45 | 5 | 2.0 | 11.0 | 0.00 | 0.02 | 0.00 | 59 | 1004.5 |
| 20260508061202 | 45 | 334 | 4.0 | 9.0 | 0.00 | 0.02 | 0.00 | 60 | 1004.6 |
| 20260508060204 | 45 | 327 | 3.0 | 9.0 | 0.00 | 0.02 | 0.00 | 59 | 1004.8 |
| 20260508055203 | 45 | 0 | 3.0 | 9.0 | 0.00 | 0.02 | 0.00 | 60 | 1005.0 |
| 20260508054203 | 45 | 338 | 4.0 | 12.0 | 0.00 | 0.02 | 0.00 | 59 | 1004.9 |
| 20260508053203 | 45 | 299 | 3.0 | 9.0 | 0.00 | 0.02 | 0.00 | 60 | 1005.0 |
| 20260508052203 | 45 | 323 | 2.0 | 7.0 | 0.00 | 0.03 | 0.00 | 59 | 1005.2 |
| 20260508051202 | 45 | 344 | 4.0 | 10.0 | 0.00 | 0.03 | 0.00 | 61 | 1005.0 |
| 20260508050203 | 44 | 313 | 3.0 | 8.0 | 0.00 | 0.04 | 0.00 | 61 | 1005.1 |
| 20260508045224 | 44 | 317 | 2.0 | 5.0 | 0.00 | 0.05 | 0.00 | 61 | 1005.4 |
| 20260508044202 | 45 | 313 | 2.0 | 7.0 | 0.00 | 0.09 | 0.00 | 62 | 1005.5 |
| 20260508043203 | 45 | 0 | 2.0 | 6.0 | 0.00 | 0.15 | 0.00 | 61 | 1005.5 |
| 20260508042203 | 44 | 322 | 2.0 | 5.0 | 0.00 | 0.17 | 0.00 | 62 | 1005.5 |
| 20260508041203 | 45 | 316 | 3.0 | 6.0 | 0.00 | 0.18 | 0.00 | 61 | 1005.5 |
| 20260508040203 | 45 | 306 | 2.0 | 6.0 | 0.00 | 0.18 | 0.00 | 60 | 1005.5 |
| 20260508035202 | 46 | 321 | 2.0 | 9.0 | 0.00 | 0.18 | 0.18 | 58 | 1005.6 |
| 20260508034224 | 46 | 344 | 2.0 | 6.0 | 0.00 | 0.18 | 0.18 | 60 | 1005.7 |
| 20260508033202 | 47 | 14 | 2.0 | 5.0 | 0.00 | 0.18 | 0.18 | 56 | 1005.6 |
| 20260508032203 | 48 | 352 | 3.0 | 10.0 | 0.00 | 0.18 | 0.18 | 53 | 1005.6 |
| 20260508031203 | 48 | 355 | 2.0 | 8.0 | 0.00 | 0.18 | 0.18 | 55 | 1005.5 |
| 20260508030203 | 47 | 350 | 3.0 | 9.0 | 0.00 | 0.18 | 0.18 | 57 | 1005.6 |
| 20260508025203 | 48 | 328 | 2.0 | 8.0 | 0.00 | 0.18 | 0.18 | 56 | 1005.5 |
| 20260508024203 | 48 | 337 | 4.0 | 10.0 | 0.00 | 0.18 | 0.18 | 55 | 1005.3 |
| 20260508023203 | 48 | 352 | 2.0 | 10.0 | 0.00 | 0.18 | 0.18 | 56 | 1005.2 |
| 20260508022203 | 48 | 345 | 3.0 | 10.0 | 0.00 | 0.18 | 0.18 | 57 | 1005.2 |
| 20260508021202 | 49 | 317 | 3.0 | 7.0 | 0.00 | 0.18 | 0.18 | 55 | 1005.0 |
| 20260508020203 | 50 | 332 | 2.0 | 9.0 | 0.00 | 0.18 | 0.18 | 55 | 1005.0 |
| 20260508015203 | 50 | 346 | 4.0 | 11.0 | 0.00 | 0.18 | 0.18 | 52 | 1005.0 |
| 20260508014203 | 51 | 314 | 3.0 | 8.0 | 0.00 | 0.18 | 0.18 | 53 | 1004.9 |
| 20260508013202 | 51 | 345 | 3.0 | 9.0 | 0.00 | 0.18 | 0.18 | 52 | 1004.8 |
| 20260508012203 | 50 | 344 | 4.0 | 7.0 | 0.00 | 0.18 | 0.18 | 53 | 1004.9 |
| 20260508011204 | 51 | 334 | 2.0 | 9.0 | 0.00 | 0.19 | 0.18 | 55 | 1004.8 |
| 20260508010203 | 51 | 344 | 2.0 | 9.0 | 0.00 | 0.19 | 0.18 | 52 | 1004.6 |
| 20260508005203 | 51 | 345 | 3.0 | 9.0 | 0.00 | 0.20 | 0.18 | 55 | 1004.4 |
| 20260508004203 | 49 | 43 | 1.0 | 4.0 | 0.00 | 0.21 | 0.18 | 66 | 1004.2 |
| 20260508003203 | 50 | 351 | 2.0 | 4.0 | 0.00 | 0.22 | 0.18 | 60 | 1004.0 |
| 20260508002203 | 50 | 353 | 2.0 | 6.0 | 0.00 | 0.23 | 0.18 | 68 | 1003.8 |
| 20260508001203 | 49 | 306 | 1.0 | 7.0 | 0.00 | 0.24 | 0.18 | 79 | 1003.7 |
| 20260508000204 | 48 | 317 | 1.0 | 3.0 | 0.00 | 0.24 | 0.18 | 81 | 1003.7 |
| 20260507235203 | 48 | 315 | 0.0 | 2.0 | 0.00 | 0.24 | 0.18 | 77 | 1003.6 |
| 20260507234223 | 50 | 313 | 0.0 | 7.0 | 0.00 | 0.25 | 0.18 | 76 | 1003.6 |
| 20260507233203 | 50 | 207 | 1.0 | 3.0 | 0.00 | 0.26 | 0.18 | 75 | 1003.4 |
| 20260507232203 | 52 | 207 | 1.0 | 4.0 | 0.00 | 0.27 | 0.18 | 71 | 1003.1 |
| 20260507231202 | 54 | 199 | 2.0 | 8.0 | 0.00 | 0.30 | 0.18 | 64 | 1003.0 |
| 20260507230203 | 56 | 283 | 2.0 | 6.0 | 0.00 | 0.33 | 0.18 | 52 | 1002.8 |
| 20260507225202 | 55 | 312 | 1.0 | 12.0 | 0.00 | 0.35 | 0.18 | 59 | 1002.8 |
| 20260507224203 | 54 | 215 | 1.0 | 4.0 | 0.00 | 0.38 | 0.18 | 70 | 1002.5 |
| 20260507223203 | 54 | 206 | 2.0 | 6.0 | 0.00 | 0.41 | 0.18 | 68 | 1002.5 |
| 20260507222203 | 55 | 237 | 3.0 | 6.0 | 0.00 | 0.47 | 0.18 | 67 | 1002.4 |
| 20260507220203 | 54 | 181 | 3.0 | 10.0 | 0.00 | 0.60 | 0.18 | 71 | 1002.3 |
| 20260507215223 | 54 | 203 | 4.0 | 11.0 | 0.00 | 0.62 | 0.18 | 71 | 1002.4 |
| 20260507214203 | 54 | 233 | 4.0 | 11.0 | 0.00 | 0.64 | 0.18 | 71 | 1002.5 |
| 20260507213224 | 54 | 196 | 5.0 | 14.0 | 0.00 | 0.66 | 0.18 | 70 | 1002.5 |
| 20260507212204 | 54 | 194 | 5.0 | 12.0 | 0.00 | 0.67 | 0.18 | 72 | 1002.4 |
| 20260507211203 | 55 | 212 | 6.0 | 14.0 | 0.00 | 0.68 | 0.18 | 71 | 1002.4 |
| 20260507210202 | 55 | 213 | 5.0 | 12.0 | 0.00 | 0.68 | 0.18 | 70 | 1002.2 |
| 20260507205224 | 55 | 249 | 5.0 | 10.0 | 0.00 | 0.69 | 0.18 | 71 | 1002.3 |
| 20260507204225 | 54 | 249 | 4.0 | 15.0 | 0.00 | 0.70 | 0.18 | 73 | 1002.2 |
| 20260507203202 | 53 | 228 | 5.0 | 11.0 | 0.00 | 0.70 | 0.18 | 73 | 1002.2 |
| 20260507202203 | 55 | 205 | 6.0 | 17.0 | 0.00 | 0.71 | 0.18 | 72 | 1002.2 |
| 20260507201202 | 54 | 205 | 7.0 | 17.0 | 0.00 | 0.72 | 0.18 | 71 | 1002.2 |
| 20260507200224 | 57 | 218 | 6.0 | 20.0 | 0.00 | 0.72 | 0.18 | 68 | 1002.3 |
| 20260507195202 | 57 | 203 | 6.0 | 18.0 | 0.00 | 0.73 | 0.18 | 69 | 1002.4 |
| 20260507194203 | 58 | 203 | 5.0 | 21.0 | 0.00 | 0.74 | 0.18 | 68 | 1002.5 |
| 20260507193203 | 58 | 226 | 6.0 | 15.0 | 0.00 | 0.74 | 0.18 | 65 | 1002.6 |